This demonstration page uses our WeatherBlox Daily Observations layout. Learn more.

Hourly Observations for June 19, 2020

Temp ( °F °C ) Dew Point ( °F °C ) Humidity (%) Winds ( mph kmh ) Pressure ( in mb ) Visibility ( mi km ) Precip ( " mm )
12:54 am 00:54 Cloudy 63 17.2 59 15 87 87 NNE 8 13 29.98 1015 10 16.0934 0.001 0.001
1:54 am 01:54 Cloudy 64 17.8 60 15.6 87 87 N 10 17 29.99 1016 10 16.0934 0 0
2:54 am 02:54 Mostly Cloudy 63 17.2 59 15 87 87 NE 9 15 29.97 1015 10 16.0934 0.001 0.001
3:54 am 03:54 Cloudy with Rain 63 17.2 59 15 87 87 NNE 7 11 29.98 1015 8 12.87472 0.03 0.762
4:29 am 04:29 Cloudy with Light Rain 63 17.2 60 15.6 90 90 NNW 9 15 30.01 1016 10 16.0934 0.04 1.016
4:40 am 04:40 Cloudy with Light Rain 63 17.2 60 15.6 90 90 N 6 9 30 1016 10 16.0934 0.04 1.016
4:54 am 04:54 Cloudy 63 17.2 60 15.6 90 90 Calm 30 1016 10 16.0934 0.04 1.016
5:18 am 05:18 Cloudy 63 17.2 60 15.6 90 90 Calm 30.01 1016 10 16.0934 0 0
5:54 am 05:54 Cloudy 64 17.8 60 15.6 87 87 Calm 30.03 1017 10 16.0934 0 0
6:22 am 06:22 Partly Cloudy 63 17.2 60 15.6 90 90 N 5 7 30.03 1017 10 16.0934 0 0
6:54 am 06:54 Mostly Cloudy 64 17.8 60 15.6 87 87 NNW 6 9 30.02 1017 10 16.0934 0 0
7:54 am 07:54 Cloudy 65 18.3 61 16.1 87 87 NNW 7 11 30.03 1017 10 16.0934 0 0
8:24 am 08:24 Partly Cloudy 66 18.9 61 16.1 84 84 N 8 13 30.01 1016 10 16.0934 0 0
8:54 am 08:54 Sunny 67 19.4 61 16.1 81 81 N 7 11 30.01 1016 10 16.0934 0 0
9:54 am 09:54 Sunny 68 20 60 15.6 76 76 N 8 13 30.02 1017 10 16.0934 0 0
10:54 am 10:54 Partly Cloudy 70 21.1 60 15.6 71 71 NE 10 17 30.05 1018 10 16.0934 0 0
11:54 am 11:54 Mostly Cloudy 73 22.8 60 15.6 64 64 NE 12 19 30.06 1018 10 16.0934 0 0
12:54 pm 12:54 Partly Cloudy 74 23.3 61 16.1 64 64 NE 12 19 30.04 1017 10 16.0934 0 0
1:36 pm 13:36 Cloudy 75 23.9 62 16.7 64 64 NE 9 15 30.01 1016 10 16.0934 0 0
1:54 pm 13:54 Cloudy 75 23.9 62 16.7 64 64 NE 8 13 30.03 1017 10 16.0934 0 0
2:12 pm 14:12 Cloudy 74 23.3 61 16.1 64 64 E 10 17 30 1016 10 16.0934 0 0
2:54 pm 14:54 Cloudy 74 23.3 61 16.1 64 64 ENE 10 17 30.02 1017 10 16.0934 0 0
3:54 pm 15:54 Cloudy 74 23.3 61 16.1 64 64 E 7 11 30.01 1016 10 16.0934 0 0
4:54 pm 16:54 Cloudy 75 23.9 61 16.1 62 62 NE 10 17 29.99 1016 10 16.0934 0 0
5:54 pm 17:54 Cloudy 75 23.9 60 15.6 60 60 NE 8 13 29.98 1015 10 16.0934 0 0
6:54 pm 18:54 Cloudy 75 23.9 60 15.6 60 60 ENE 12 19 29.97 1015 10 16.0934 0 0
7:54 pm 19:54 Mostly Cloudy 74 23.3 60 15.6 62 62 NE 6 9 29.98 1015 10 16.0934 0 0
8:54 pm 20:54 Cloudy 71 21.7 58 14.4 63 63 NE 8 13 29.97 1015 10 16.0934 0 0
9:54 pm 21:54 Cloudy 70 21.1 58 14.4 66 66 NE 6 9 30 1016 10 16.0934 0 0
10:54 pm 22:54 Cloudy 69 20.6 59 15 70 70 NE 6 9 30.01 1016 10 16.0934 0 0
11:54 pm 23:54 Mostly Cloudy 68 20 58 14.4 70 70 Calm 30 1016 10 16.0934 0 0

Powered by AerisWeather